Temperature
18 18 18 18 17 17 17 17 17 16 17 17 17 17 17 17 16 16 16 16 16 16 16 16 16 15 15 15 15 15 15 15 15 15 15 14 14 14
18 18 18 17 17 17 17 17 17 17 16 17 17 17 17 17 16 16 16 16 16 16 16 15 15 15 15 15 15 15 15 15 15 15 14 14 14 14
17 17 17 17 17 17 17 17 17 17 17 17 17 16 16 16 16 16 16 16 16 16 16 16 15 15 15 15 15 15 15 15 14 14 14 14 14 14
17 17 17 17 17 17 17 17 17 16 16 16 16 16 16 16 16 16 16 16 16 16 15 15 15 15 15 15 15 15 14 14 14 14 14 14 14 14
17 17 17 17 17 17 17 17 16 16 16 16 16 16 16 16 16 16 16 16 15 15 15 15 15 15 15 15 15 14 14 14 14 14 14 14 14 14
17 17 17 17 17 17 17 17 17 16 16 16 16 16 16 16 15 16 16 16 15 15 15 15 15 15 15 15 14 14 14 14 14 14 13 13 13 13
17 17 17 17 17 17 17 17 16 16 16 16 16 15 15 15 15 15 15 15 15 15 15 15 15 14 14 14 14 14 14 14 14 13 13 13 13 13
17 17 16 16 16 16 16 16 16 16 16 16 15 15 15 15 15 15 15 14 14 15 14 14 14 14 14 14 14 14 14 13 13 13 13 13 13 13
16 16 16 16 16 16 16 16 16 16 15 15 15 15 15 15 15 14 14 14 14 14 14 14 14 14 14 14 14 13 13 13 13 13 13 13 12 12
16 16 16 16 16 16 16 16 16 16 15 15 15 15 15 15 14 14 14 14 14 14 13 13 14 13 13 13 13 13 13 13 13 13 13 12 12 12
16 16 16 16 16 15 15 15 15 15 15 15 15 14 14 14 14 14 14 13 13 13 13 13 13 13 13 13 13 13 13 13 13 13 12 12 12 12
15 15 15 15 15 15 15 15 15 15 15 15 14 14 14 14 14 13 13 13 13 13 13 13 13 12 12 13 13 12 12 12 12 12 12 12 12 12
15 15 15 15 15 15 14 14 14 14 14 14 14 14 14 14 13 13 13 13 12 12 12 12 12 12 11 11 12 12 12 12 12 12 12 12 12 11
15 15 15 15 14 14 14 14 14 14 13 13 13 13 14 14 13 13 13 13 12 12 12 12 11 11 11 11 11 11 12 11 11 11 11 11 11 11
15 15 14 14 14 14 14 14 13 13 13 13 13 13 13 13 13 13 13 12 12 12 12 11 11 11 11 11 11 11 11 11 11 11 11 11 11 11
14 14 14 14 14 14 14 13 13 13 13 13 13 13 13 13 12 12 12 12 12 12 12 11 11 11 11 10 10 10 10 10 10 10 10 10 10 10
14 14 14 14 14 13 13 13 13 13 12 12 12 12 12 12 12 12 12 11 11 11 11 11 11 11 10 10 10 10 10 10 10 10 10 10 10 10
14 14 14 13 13 13 13 13 13 13 12 12 12 12 12 11 11 11 11 11 11 11 11 11 10 10 10 10 10 10 10 10 10 9 9 9 9 10
13 13 13 13 13 13 13 13 13 12 12 12 12 11 11 11 11 11 11 10 10 10 10 10 10 9 9 9 9 9 9 9 9 9 9 9 9 9
13 13 13 13 13 12 12 12 12 12 12 12 11 11 11 11 10 10 10 10 10 10 9 9 9 9 9 8 8 9 9 8 8 8 8 9 9 9
13 13 12 12 12 12 12 12 12 12 11 11 11 11 10 10 10 10 10 10 9 9 9 9 9 8 8 8 8 8 8 8 8 8 8 8 8 8
13 12 12 12 12 11 11 11 11 11 11 11 10 10 10 10 10 10 9 9 9 9 9 8 8 8 8 8 7 7 7 8 8 8 8 7 7 7
12 12 12 12 11 11 11 11 11 10 10 10 10 10 10 9 9 9 9 9 8 8 8 8 8 8 7 7 7 7 7 7 7 7 7 7 7 7
Wind_Speed
3 3 2 2 2 2 3 3 3 2 3 2 2 1 2 2 3 2 3 4 4 4 5 5 6 5 5 5 5 5 5 5 5 5 7 8 8 8
2 3 2 2 2 2 3 2 3 3 3 2 2 2 2 2 2 3 3 4 5 6 6 6 6 6 6 6 6 6 6 6 6 6 7 8 9 9
3 3 3 3 2 2 2 2 3 3 4 3 2 2 2 2 2 2 3 3 4 6 7 7 6 7 7 7 7 7 7 7 7 7 7 8 9 9
3 3 4 3 3 3 3 3 3 3 4 4 3 2 3 2 2 2 2 3 4 5 6 7 7 7 8 8 8 8 8 9 9 8 8 8 9 9
4 4 5 4 4 4 4 4 3 3 3 3 3 2 2 2 2 2 3 2 4 4 5 6 7 8 9 9 9 9 9 9 10 10 9 9 9 9
4 5 5 5 6 5 4 5 4 3 3 3 3 3 3 2 2 2 3 2 3 3 4 5 6 7 9 9 9 10 10 11 11 11 10 9 10 10
3 4 5 5 6 6 5 5 4 4 3 3 3 3 3 2 3 2 3 3 3 3 3 3 3 4 5 7 9 10 10 11 11 11 11 10 10 11
4 4 4 4 5 6 6 6 6 5 5 4 4 4 5 4 3 3 3 3 3 2 2 4 3 4 4 5 7 9 10 10 10 11 11 11 11 11
4 4 4 4 3 3 4 5 6 7 8 6 6 7 5 5 4 4 4 4 5 2 2 3 3 4 5 6 7 8 9 9 10 10 10 11 11 11
5 5 4 4 4 3 3 4 5 5 6 6 7 7 6 5 5 5 5 4 4 3 3 4 3 4 4 5 7 8 9 9 9 9 9 10 11 11
5 5 5 5 5 4 3 4 5 5 5 6 7 7 6 6 4 2 2 2 4 3 3 3 3 4 4 5 6 8 8 9 9 9 9 9 10 10
4 4 5 6 6 5 4 4 6 6 4 3 4 5 5 5 5 5 4 4 3 4 3 3 3 2 3 3 4 4 5 7 8 9 9 9 9 6
5 5 4 6 7 7 6 6 7 6 4 4 3 3 3 3 3 4 5 5 5 5 3 4 3 3 3 3 3 4 4 4 4 5 7 8 9 7
5 5 5 6 6 6 5 6 6 4 3 3 3 3 3 4 3 4 6 7 7 7 5 5 4 4 4 5 5 4 4 4 4 4 5 5 7 10
5 5 5 5 4 4 5 5 4 3 2 3 4 5 4 4 3 3 3 4 5 7 6 6 5 5 5 6 5 5 5 4 4 5 5 5 5 4
4 4 4 4 3 4 3 3 3 3 4 4 4 4 3 2 3 2 2 2 3 4 4 5 6 6 6 7 6 6 5 4 4 4 5 5 5 6
2 2 2 2 3 3 3 3 3 3 4 4 4 4 3 3 3 3 2 2 3 4 4 3 4 5 6 6 6 6 6 6 5 4 4 6 6 5
3 2 3 4 5 5 5 4 4 4 4 4 4 4 4 4 4 3 2 3 4 4 5 4 2 2 3 4 6 6 5 5 5 4 4 5 7 6
2 4 4 4 5 5 5 5 5 4 4 4 4 4 4 4 4 3 3 4 4 4 4 4 3 3 4 5 4 5 5 5 4 4 4 5 7 7
3 4 5 5 5 5 5 5 4 4 4 4 4 4 4 4 4 4 4 5 5 4 4 3 3 4 5 6 5 4 5 5 4 5 5 5 6 6
4 4 4 5 5 5 5 4 5 5 4 4 4 4 4 4 4 5 5 5 5 4 5 5 5 5 4 3 4 5 4 5 6 5 5 5 5 4
4 4 4 5 4 4 4 4 4 4 5 4 4 4 4 4 5 5 5 4 4 5 5 5 3 2 2 4 6 6 6 4 4 6 7 6 4 4
4 4 4 4 4 4 4 4 4 4 4 4 4 4 4 4 4 4 4 4 4 4 4 4 3 2 3 4 5 5 6 5 4 4 5 6 8 10
Wind_Direction
213 207 215 231 211 206 192 184 183 234 267 263 267 282 272 254 273 254 256 264 253 261 263 261 259 258 257 255 252 253 254 256 256 257 248 246 245 241
219 208 222 234 225 212 200 203 198 200 238 246 245 281 282 281 268 246 250 257 255 257 260 261 259 256 257 259 256 253 254 255 258 259 254 245 244 242
231 216 226 222 223 222 203 201 207 202 229 260 250 266 254 279 298 268 259 255 264 257 256 257 256 257 256 255 256 256 255 255 255 257 260 251 244 243
235 225 235 228 227 224 213 215 217 211 216 247 258 255 249 269 279 274 274 262 263 267 259 258 257 259 257 254 252 253 255 257 257 257 260 257 249 241
231 229 233 223 236 232 221 223 224 219 216 227 254 253 255 279 290 288 282 274 275 273 266 261 260 260 258 257 252 250 252 256 258 258 259 258 250 242
242 241 238 229 232 230 228 227 221 216 215 224 248 259 259 270 270 274 286 278 277 281 274 269 268 264 262 259 257 254 252 252 253 255 255 256 249 240
263 260 252 243 235 231 231 224 213 214 218 229 244 254 255 257 255 249 262 282 273 255 275 276 276 274 274 268 263 260 256 255 255 254 252 251 249 239
259 271 272 259 250 240 235 224 210 214 220 226 241 247 252 247 248 249 253 271 276 244 245 275 265 270 271 268 266 261 257 255 256 257 254 249 247 243
249 261 272 275 267 263 253 240 236 233 221 220 235 243 245 237 231 246 243 246 253 259 223 266 265 266 270 266 263 258 257 260 261 260 255 247 242 241
249 245 249 264 265 250 260 262 259 254 240 233 239 247 249 238 223 231 238 249 260 253 216 254 268 269 277 270 262 256 253 254 259 260 256 248 241 236
258 247 242 251 259 237 240 261 272 274 257 238 237 248 254 246 219 206 219 236 261 258 216 240 266 275 276 272 264 256 257 258 259 260 259 250 242 236
264 259 246 248 255 236 231 242 260 271 277 275 258 260 258 251 223 217 220 232 253 257 225 220 254 267 277 271 273 271 266 263 261 258 260 256 245 237
259 264 263 252 249 244 233 238 250 260 266 263 268 271 266 252 238 230 226 225 233 244 229 206 237 241 250 274 281 273 265 274 273 267 260 253 244 229
251 260 262 259 252 249 247 253 257 257 269 275 276 276 272 266 253 238 232 233 236 244 236 214 226 232 241 259 270 276 273 275 271 269 270 260 248 234
247 252 261 259 256 256 259 261 256 248 248 258 265 269 266 266 265 256 252 243 248 251 246 231 236 239 241 252 261 268 277 275 262 264 267 263 260 250
254 268 269 260 249 255 268 266 251 242 237 249 261 269 275 270 265 260 263 262 268 273 263 251 244 241 247 253 257 263 262 262 267 267 270 269 259 248
243 262 266 268 272 269 266 262 252 250 250 254 255 261 264 265 265 260 254 250 253 272 287 287 267 249 248 249 253 259 263 265 267 271 271 275 268 255
189 240 253 255 259 263 263 265 258 252 251 250 252 256 260 261 264 258 249 250 263 272 278 282 282 282 275 261 240 256 264 269 273 264 257 266 275 266
204 245 254 257 259 259 257 254 257 257 249 247 250 255 258 260 261 260 258 260 265 270 275 277 266 255 268 279 273 231 259 275 278 275 263 259 271 275
234 249 256 258 258 258 257 256 257 259 252 249 249 251 251 254 260 263 258 256 260 266 272 273 265 254 253 266 271 277 250 258 270 274 276 275 274 276
244 249 256 260 261 261 262 259 256 256 254 246 247 247 248 249 254 258 258 255 254 258 262 269 272 267 263 264 272 280 280 254 248 260 269 275 281 278
250 253 259 264 265 267 268 266 265 263 259 254 254 251 247 245 249 253 252 251 249 251 261 270 284 280 259 259 273 281 288 297 278 264 258 242 254 262
255 258 264 268 269 271 272 270 268 269 267 264 263 262 258 253 253 250 248 245 245 250 258 272 285 281 270 264 272 280 287 297 301 291 286 276 264 267
Height
1542 1542 1542 1542 1541 1541 1541 1540 1540 1538 1538 1537 1537 1536 1536 1535 1534 1533 1533 1532 1531 1530 1529 1529 1528 1527 1526 1525 1525 1524 1524 1524 1523 1523 1523 1523 1523 1523
1539 1539 1539 1539 1539 1539 1538 1538 1537 1537 1535 1535 1535 1534 1533 1533 1532 1531 1530 1530 1529 1528 1527 1526 1525 1524 1524 1523 1522 1522 1521 1521 1520 1520 1519 1519 1519 1519
1537 1537 1537 1537 1537 1536 1536 1535 1535 1534 1533 1532 1532 1531 1531 1530 1529 1528 1528 1527 1526 1525 1524 1523 1523 1522 1521 1520 1519 1518 1518 1517 1517 1516 1515 1515 1515 1515
1535 1534 1534 1534 1534 1533 1533 1532 1532 1531 1530 1529 1528 1528 1528 1527 1526 1525 1525 1524 1523 1522 1521 1520 1519 1518 1518 1517 1516 1515 1514 1514 1513 1512 1512 1511 1510 1511
1531 1531 1531 1531 1530 1530 1530 1529 1528 1528 1527 1526 1525 1525 1524 1523 1522 1522 1521 1520 1519 1519 1518 1517 1516 1515 1514 1513 1512 1511 1510 1510 1509 1508 1507 1506 1506 1506
1528 1528 1528 1527 1527 1526 1526 1525 1525 1524 1523 1522 1521 1521 1520 1519 1519 1518 1517 1516 1515 1515 1514 1513 1512 1511 1510 1509 1509 1508 1507 1506 1505 1504 1503 1502 1501 1501
1524 1524 1524 1523 1523 1523 1522 1521 1521 1520 1519 1518 1517 1517 1516 1515 1514 1514 1513 1512 1511 1511 1510 1509 1508 1507 1506 1506 1505 1504 1503 1502 1501 1499 1498 1497 1497 1497
1520 1520 1520 1519 1519 1519 1518 1517 1517 1516 1514 1514 1513 1513 1512 1511 1511 1510 1509 1508 1507 1507 1506 1505 1505 1503 1502 1502 1501 1500 1499 1497 1496 1495 1494 1493 1492 1492
1517 1516 1516 1515 1515 1514 1513 1513 1512 1511 1511 1510 1509 1508 1508 1507 1507 1506 1505 1504 1503 1503 1502 1500 1500 1499 1498 1497 1496 1495 1494 1493 1492 1491 1490 1488 1488 1488
1513 1512 1512 1511 1511 1510 1509 1509 1508 1507 1507 1506 1505 1504 1504 1503 1502 1502 1501 1500 1499 1499 1498 1496 1495 1494 1493 1492 1491 1491 1490 1488 1487 1486 1485 1484 1484 1484
1508 1508 1508 1507 1506 1506 1505 1503 1503 1502 1502 1501 1500 1500 1499 1499 1498 1497 1496 1495 1494 1494 1494 1492 1491 1489 1488 1487 1487 1486 1485 1484 1483 1482 1481 1480 1480 1479
1504 1504 1503 1503 1502 1501 1500 1499 1497 1497 1496 1495 1495 1494 1494 1494 1493 1493 1492 1491 1490 1489 1489 1488 1486 1485 1483 1482 1482 1481 1480 1479 1478 1478 1477 1476 1475 1474
1499 1499 1499 1498 1498 1497 1496 1494 1493 1492 1491 1490 1489 1489 1489 1488 1488 1488 1487 1486 1485 1484 1484 1483 1482 1481 1480 1477 1476 1476 1475 1474 1473 1473 1472 1471 1470 1469
1495 1495 1495 1494 1493 1493 1492 1490 1490 1488 1487 1485 1484 1484 1484 1484 1483 1482 1482 1481 1480 1480 1479 1478 1477 1476 1475 1473 1471 1470 1470 1470 1469 1467 1467 1466 1465 1464
1491 1491 1490 1489 1489 1488 1487 1486 1485 1484 1482 1481 1480 1480 1479 1479 1478 1477 1477 1476 1475 1474 1474 1473 1472 1471 1470 1468 1466 1465 1464 1464 1463 1462 1461 1460 1459 1458
1486 1486 1486 1485 1484 1483 1483 1482 1481 1480 1479 1478 1477 1476 1475 1474 1473 1472 1471 1470 1470 1469 1469 1467 1466 1465 1464 1463 1462 1460 1460 1458 1457 1457 1456 1455 1453 1452
1483 1482 1481 1480 1479 1479 1478 1477 1477 1476 1475 1474 1472 1471 1470 1469 1469 1468 1467 1466 1464 1463 1463 1462 1461 1460 1459 1458 1456 1455 1454 1453 1453 1451 1450 1449 1448 1447
1478 1477 1476 1476 1475 1474 1473 1472 1472 1471 1470 1469 1468 1467 1466 1465 1464 1463 1462 1461 1460 1459 1458 1456 1455 1454 1453 1452 1452 1450 1449 1448 1447 1446 1445 1443 1442 1441
1473 1472 1472 1471 1470 1470 1469 1468 1467 1466 1465 1464 1463 1462 1461 1460 1459 1458 1457 1456 1455 1454 1453 1452 1451 1449 1447 1446 1445 1446 1444 1443 1442 1441 1440 1438 1437 1436
1469 1468 1467 1466 1466 1465 1464 1463 1462 1461 1460 1459 1458 1457 1456 1455 1454 1453 1452 1451 1450 1449 1448 1447 1446 1444 1443 1443 1441 1440 1440 1438 1437 1435 1434 1433 1432 1431
1464 1464 1463 1462 1461 1460 1459 1458 1457 1456 1455 1454 1452 1452 1451 1450 1449 1448 1446 1445 1444 1443 1442 1441 1441 1441 1440 1439 1437 1435 1435 1434 1432 1431 1429 1428 1426 1425
1460 1459 1458 1458 1456 1455 1454 1453 1451 1450 1449 1448 1447 1446 1445 1444 1443 1442 1441 1440 1439 1438 1438 1437 1436 1436 1435 1434 1432 1431 1430 1429 1427 1426 1425 1424 1422 1420
1456 1455 1454 1453 1452 1450 1449 1447 1445 1444 1443 1442 1441 1440 1439 1438 1437 1437 1436 1435 1435 1434 1433 1432 1432 1431 1430 1429 1428 1427 1426 1424 1423 1421 1420 1420 1419 1418